Wetbulb
72.70 72.27 71.37 71.95 72.03 72.07 71.36 71.56 70.39 70.94 70.98 70.84 69.73 69.33 70.76 71.82 72.49 73.04 72.15 70.17 69.86 69.72 69.74 70.05 70.22 71.74 71.36 71.51 73.95 73.09 72.48 71.79 68.29 71.42 70.32 71.23 68.68 66.76 65.04 64.99 64.52 64.71 63.51
72.67 72.35 71.67 72.37 72.72 71.66 71.31 71.34 70.72 70.27 70.39 69.95 69.96 68.94 68.61 68.98 70.37 70.52 69.31 68.89 68.23 67.84 68.06 68.35 68.51 69.28 71.15 72.29 72.39 71.27 71.08 70.50 68.10 64.53 66.13 65.73 62.64 61.31 60.74 60.28 61.09 61.80 61.73
72.49 72.34 71.65 72.07 72.54 71.68 70.93 71.06 71.09 69.99 69.69 69.65 69.31 68.51 68.64 68.18 67.02 66.20 65.87 65.18 63.52 64.98 65.53 65.73 66.25 68.47 67.62 67.66 65.92 65.96 67.41 67.26 66.80 65.15 64.66 64.94 61.05 60.39 58.72 59.02 59.06 58.90 59.46
72.53 72.56 71.83 72.40 72.74 71.56 70.53 69.85 70.33 69.72 69.50 69.35 69.28 68.40 68.27 68.00 68.32 67.79 66.76 65.03 64.07 63.07 63.33 62.85 62.44 62.98 63.57 63.78 63.00 63.38 64.95 64.33 63.95 63.29 62.43 61.68 61.26 60.99 60.27 58.30 56.37 57.76 56.69
72.46 72.00 72.01 72.80 72.95 72.13 69.67 68.97 69.28 68.94 68.77 68.36 67.92 67.96 68.29 67.25 66.21 67.21 66.10 65.68 64.24 62.71 60.10 59.61 60.47 60.82 60.37 61.17 62.02 61.60 63.78 63.25 63.22 62.54 62.02 61.35 59.67 59.56 59.18 58.78 55.57 55.06 55.08
72.51 71.91 72.60 72.56 71.96 70.71 69.42 68.55 68.65 67.38 67.29 66.92 66.46 66.75 66.45 64.64 57.41 60.09 64.59 64.55 63.95 63.11 61.13 60.33 59.75 57.68 56.53 56.79 57.56 58.16 59.76 63.09 61.57 60.83 57.84 56.15 55.95 58.05 58.99 58.58 55.39 55.06 52.41
72.14 71.93 72.22 72.29 71.49 69.74 69.59 68.71 67.74 66.00 65.88 65.10 65.03 65.71 64.97 62.85 55.93 57.13 61.32 65.09 63.90 63.28 62.56 60.61 59.62 58.19 57.56 58.92 57.33 57.53 57.29 57.57 59.39 61.20 56.56 55.18 54.76 56.09 59.04 58.65 56.47 54.90 53.87
69.20 69.52 71.05 71.53 70.44 68.56 69.37 67.50 66.52 65.19 64.28 64.08 64.48 65.09 64.08 58.38 53.49 54.76 59.63 63.62 62.70 62.88 62.88 62.38 61.46 60.53 59.64 60.62 59.26 57.44 56.75 57.24 58.83 58.64 58.68 57.95 57.69 58.62 59.07 57.71 56.42 55.28 53.58
66.34 65.30 66.35 66.05 69.53 67.23 67.45 66.23 67.03 64.53 63.04 63.28 65.02 65.01 63.86 60.26 51.52 52.38 59.55 62.18 61.16 60.96 61.03 60.35 59.81 58.57 52.99 54.41 59.39 57.48 55.84 53.77 51.82 51.98 51.64 50.92 51.45 52.19 54.76 60.11 56.91 54.60 52.51
62.36 63.47 64.03 63.60 67.12 66.56 67.09 65.34 65.93 64.45 63.74 62.74 62.80 63.03 56.51 60.15 49.11 50.26 56.79 61.60 60.48 58.81 58.95 57.66 50.44 54.45 49.41 50.40 60.51 59.29 56.60 56.24 56.32 56.38 56.21 54.13 54.35 53.00 53.51 57.36 56.59 55.78 57.44
60.12 59.14 58.39 58.35 60.86 62.67 62.89 64.26 62.37 63.07 62.20 61.60 58.30 54.09 55.48 55.90 55.21 48.60 50.24 62.40 60.51 58.60 55.04 53.06 51.13 46.70 46.10 47.09 50.70 57.23 54.22 54.21 53.50 55.46 54.86 53.59 53.49 53.46 53.24 55.24 56.17 54.80 54.26
57.98 57.06 56.01 55.23 54.49 55.31 56.67 58.73 59.70 58.63 58.91 59.28 58.19 55.77 54.74 54.43 49.20 47.69 47.76 49.87 53.42 54.28 49.92 50.39 49.19 43.91 43.34 44.76 49.81 45.87 47.02 51.15 55.56 53.49 51.83 50.97 50.89 51.12 52.16 53.41 55.30 55.61 54.67
55.40 54.56 54.24 53.78 53.17 53.02 52.96 54.22 52.79 53.28 52.49 50.81 50.37 48.97 49.69 51.53 49.84 46.73 46.92 48.36 49.61 52.22 52.78 47.83 45.23 42.86 43.43 46.20 45.97 46.32 47.22 54.32 52.97 51.46 50.20 49.97 50.53 51.47 53.47 53.36 54.79 56.04 55.14
54.15 52.95 52.38 52.34 52.11 52.63 52.74 52.69 51.85 51.63 50.06 49.48 49.24 49.42 50.96 52.02 52.18 51.79 50.68 49.05 48.79 48.05 48.41 50.62 49.35 48.07 46.76 49.95 50.70 51.97 52.21 52.12 51.27 50.54 50.11 50.67 51.57 51.16 50.40 51.82 51.21 53.32 53.52
54.41 53.85 52.74 51.57 49.40 47.02 44.98 47.05 49.15 49.01 50.29 52.00 51.89 51.97 50.31 50.39 50.68 47.06 48.27 52.57 50.64 49.29 48.93 52.16 52.58 52.61 51.67 51.33 51.67 52.19 52.35 52.27 51.09 50.91 50.24 49.68 49.71 50.31 49.54 51.27 51.20 51.85 49.73
55.49 54.29 52.03 49.99 48.52 48.09 46.89 45.08 42.51 42.60 41.78 40.96 43.11 47.62 46.11 42.80 40.21 39.71 40.14 40.20 42.17 43.50 51.27 52.97 52.86 53.02 52.41 52.12 51.25 50.57 50.65 49.62 50.57 50.31 49.38 48.92 48.79 49.01 49.95 50.90 51.40 50.20 49.12
56.30 55.73 54.48 54.53 54.08 52.39 50.29 48.81 45.70 42.47 40.38 39.07 38.49 38.19 40.34 39.82 38.73 38.41 38.39 38.94 40.53 42.27 51.72 53.11 52.33 52.61 51.89 51.72 51.23 51.46 49.80 49.60 51.72 50.18 49.31 49.09 49.40 48.09 47.86 49.07 50.17 50.15 49.64
54.81 47.58 52.81 52.16 51.73 51.80 52.61 53.67 54.23 53.53 51.82 50.19 39.88 42.50 37.65 38.41 38.51 38.20 38.59 39.83 48.48 47.72 52.47 51.39 51.78 51.89 51.31 50.73 51.03 50.56 48.95 48.66 49.39 49.99 49.80 49.48 49.40 48.35 48.92 48.84 49.01 47.94 49.34
52.25 51.75 51.91 51.63 51.51 50.87 51.73 51.56 51.59 51.75 51.39 50.67 49.85 43.99 42.35 38.52 38.40 38.71 39.89 49.91 51.99 51.44 51.31 50.69 51.25 50.76 50.78 50.20 50.51 50.29 49.83 48.18 47.94 48.41 49.58 50.02 50.02 48.35 48.99 48.58 47.13 40.90 41.82
52.49 48.97 52.05 52.48 52.26 52.48 52.70 52.48 51.75 51.23 51.14 50.94 50.71 50.38 50.02 47.48 48.74 49.53 50.14 51.26 50.95 50.99 51.37 50.88 50.30 50.48 50.59 50.27 49.38 48.98 47.77 47.64 47.82 48.04 49.02 50.10 49.80 48.21 47.68 47.00 47.36 46.60 47.33
53.40 52.73 49.22 54.42 54.15 54.08 53.89 53.40 53.37 53.17 51.67 51.05 51.10 48.91 39.70 49.97 50.86 50.43 50.66 50.77 50.69 50.80 50.63 50.12 49.93 49.56 49.40 49.19 48.93 48.66 48.08 48.20 48.61 48.48 48.42 48.18 49.17 47.01 48.10 46.98 46.65 47.06 47.42
55.15 54.52 55.51 55.73 55.60 55.58 56.63 56.64 56.00 55.35 54.59 52.77 51.14 48.49 39.61 48.00 50.01 50.11 50.31 50.54 50.92 50.49 50.54 50.09 49.64 50.06 49.64 49.27 48.88 48.40 48.42 47.91 48.34 48.37 48.02 48.02 47.75 47.22 46.72 46.07 46.30 46.53 46.76
56.08 56.35 56.30 57.28 57.34 53.16 54.79 55.14 55.18 54.90 54.38 53.73 52.73 50.97 49.38 48.91 49.51 49.93 50.03 50.47 50.67 50.64 51.12 50.17 49.45 49.00 49.45 49.89 49.85 49.74 48.73 48.70 49.05 49.32 48.29 47.83 47.32 46.67 46.13 45.16 45.79 45.73 45.78
57.71 58.20 57.21 57.21 57.61 56.70 56.40 56.23 56.19 50.11 53.75 54.57 54.03 53.01 52.35 51.18 50.19 49.98 50.56 51.18 50.86 50.79 50.69 50.60 50.19 49.43 49.61 49.74 50.03 50.17 49.95 49.45 49.30 48.65 48.78 47.83 47.09 44.85 44.63 44.58 45.70 45.69 45.62
58.64 57.50 57.42 56.36 56.00 55.66 55.29 54.98 55.06 55.63 55.52 55.30 54.67 54.16 53.93 53.36 52.55 52.26 52.22 52.09 51.50 51.03 50.97 51.09 50.81 50.67 50.45 50.32 50.34 50.41 41.66 35.52 44.21 37.03 48.28 47.78 46.80 46.49 44.63 44.48 45.40 45.65 45.72
57.06 58.37 56.23 55.17 52.95 55.56 54.22 54.09 54.67 55.51 55.65 55.62 55.04 54.74 54.91 54.20 54.52 53.83 52.52 52.33 52.08 51.80 51.70 51.54 51.62 51.75 51.45 50.93 50.81 45.48 34.36 32.74 40.76 33.52 45.79 46.85 45.85 45.46 45.13 44.33 44.79 45.36 45.43
MSLP
1013.58 1014.16 1014.36 1014.37 1014.59 1014.73 1014.78 1014.79 1015.13 1014.96 1014.63 1014.35 1014.31 1014.29 1013.78 1013.33 1013.23 1013.27 1013.55 1014.06 1014.09 1014.41 1014.66 1014.70 1014.73 1014.70 1014.26 1014.07 1014.43 1014.60 1015.11 1015.51 1015.53 1015.57 1015.96 1016.53 1016.84 1017.13 1017.32 1017.40 1017.39 1017.26 1017.32
1013.68 1014.20 1014.31 1014.42 1014.51 1014.62 1014.82 1014.85 1015.05 1015.13 1014.78 1014.61 1014.52 1014.48 1014.42 1014.16 1013.98 1014.02 1014.20 1014.47 1014.60 1014.73 1014.86 1014.91 1014.91 1014.98 1014.85 1014.94 1015.09 1015.10 1015.33 1015.62 1015.92 1016.28 1016.63 1016.96 1017.33 1017.88 1017.88 1018.01 1017.95 1017.93 1017.98
1013.60 1014.01 1014.18 1014.20 1014.42 1014.84 1014.89 1015.17 1015.26 1015.32 1015.14 1014.99 1014.89 1014.81 1014.75 1014.79 1014.93 1015.22 1015.42 1015.55 1015.78 1015.74 1015.68 1015.65 1015.52 1015.41 1015.49 1015.67 1015.92 1016.05 1016.09 1016.12 1016.34 1016.55 1016.75 1017.10 1017.95 1018.27 1018.61 1018.66 1018.71 1018.70 1018.73
1013.42 1013.57 1013.82 1014.17 1014.48 1014.90 1015.32 1015.45 1015.55 1015.62 1015.50 1015.42 1015.25 1015.19 1015.32 1015.32 1015.35 1015.60 1015.81 1016.06 1016.38 1016.52 1016.56 1016.54 1016.53 1016.46 1016.50 1016.45 1016.40 1016.54 1016.50 1016.57 1016.58 1016.80 1017.22 1017.48 1018.00 1018.37 1018.61 1018.90 1019.21 1019.27 1019.48
1013.21 1013.17 1013.50 1014.18 1014.59 1015.18 1015.69 1015.66 1015.91 1016.09 1016.13 1016.03 1015.87 1015.75 1015.83 1015.93 1016.15 1016.17 1016.35 1016.61 1016.94 1017.24 1017.44 1017.38 1017.37 1017.31 1017.24 1017.26 1017.30 1017.35 1017.10 1016.96 1017.10 1017.25 1017.55 1017.85 1018.27 1018.60 1018.67 1019.01 1019.59 1019.89 1020.16
1012.89 1013.02 1013.31 1013.95 1014.50 1015.18 1015.82 1015.94 1016.13 1016.46 1016.70 1016.66 1016.61 1016.41 1016.42 1016.77 1017.20 1016.94 1016.84 1017.08 1017.37 1017.57 1017.87 1018.03 1018.10 1018.12 1018.11 1018.06 1018.02 1017.90 1017.71 1017.62 1017.73 1017.89 1018.42 1018.68 1019.05 1019.16 1019.15 1019.20 1019.71 1019.92 1020.36
1013.14 1013.27 1013.48 1013.89 1014.42 1015.13 1015.77 1015.88 1016.15 1016.86 1017.08 1017.27 1017.31 1017.10 1017.22 1017.74 1017.96 1017.69 1017.52 1017.47 1017.63 1017.85 1018.01 1018.29 1018.29 1018.68 1018.62 1018.41 1018.39 1018.32 1018.29 1018.23 1018.26 1018.38 1018.91 1019.28 1019.31 1019.46 1019.25 1019.32 1019.79 1020.05 1020.48
1014.06 1014.14 1014.03 1014.21 1014.66 1015.29 1015.76 1016.09 1016.57 1017.18 1017.44 1017.55 1017.64 1017.64 1017.88 1018.53 1018.52 1018.25 1017.96 1017.89 1018.04 1018.10 1018.16 1018.41 1018.68 1018.95 1019.00 1018.71 1018.67 1018.74 1019.01 1019.24 1019.10 1018.92 1019.26 1019.60 1019.74 1019.52 1019.31 1019.53 1019.86 1020.29 1020.76
1014.44 1014.98 1015.11 1015.24 1014.91 1015.43 1015.76 1016.33 1016.71 1017.32 1017.83 1018.04 1017.90 1017.94 1018.29 1018.84 1018.83 1018.55 1018.17 1018.19 1018.50 1018.74 1018.90 1019.23 1019.41 1019.78 1019.94 1019.53 1019.18 1019.30 1019.64 1020.03 1020.64 1020.62 1020.70 1020.62 1020.37 1020.02 1019.50 1018.67 1019.05 1019.36 1019.70
1015.62 1015.71 1015.92 1015.80 1015.34 1015.58 1015.88 1016.53 1016.95 1017.35 1017.79 1018.10 1018.36 1018.68 1019.23 1019.33 1019.49 1019.16 1018.69 1018.37 1018.62 1018.98 1019.48 1020.06 1020.57 1020.73 1020.73 1020.26 1019.69 1019.59 1019.73 1019.97 1020.06 1020.18 1020.27 1020.22 1020.08 1020.29 1020.06 1019.49 1018.67 1018.33 1018.58
1016.64 1016.81 1016.83 1016.68 1016.24 1016.23 1016.59 1016.95 1017.43 1017.54 1018.07 1018.55 1019.15 1019.74 1019.83 1020.03 1020.10 1020.10 1019.58 1018.96 1018.82 1019.05 1019.96 1020.73 1021.61 1021.70 1021.41 1021.24 1020.77 1020.64 1020.76 1020.74 1020.67 1020.19 1019.93 1019.76 1019.64 1019.74 1019.92 1020.01 1019.93 1019.13 1018.94
1017.31 1017.44 1017.71 1017.80 1017.69 1017.62 1017.69 1017.87 1018.16 1018.46 1018.84 1019.14 1019.65 1020.09 1020.66 1021.01 1021.11 1021.01 1020.81 1020.64 1020.54 1020.76 1021.62 1021.77 1022.26 1022.40 1022.17 1021.84 1021.68 1022.01 1021.32 1020.97 1020.06 1019.91 1019.82 1019.91 1019.92 1019.96 1020.51 1020.71 1020.90 1020.72 1020.75
1018.04 1018.33 1018.54 1018.62 1018.74 1018.64 1018.80 1018.91 1019.11 1019.56 1019.62 1020.23 1020.55 1021.10 1021.51 1021.60 1021.77 1021.74 1021.63 1021.37 1021.37 1021.40 1021.77 1022.37 1022.47 1022.63 1022.43 1022.07 1022.07 1021.96 1021.76 1020.62 1020.20 1020.17 1020.19 1020.37 1020.53 1020.92 1020.60 1020.72 1021.11 1021.22 1021.25
1018.63 1018.93 1019.22 1019.22 1019.43 1019.58 1019.74 1019.90 1020.05 1020.42 1020.60 1020.80 1021.04 1021.42 1021.85 1021.79 1022.17 1022.18 1022.47 1022.47 1021.88 1022.34 1022.78 1022.32 1022.30 1022.35 1022.06 1022.12 1021.83 1021.55 1021.27 1021.03 1020.80 1020.71 1020.81 1020.77 1020.71 1020.63 1020.66 1020.63 1020.51 1020.43 1020.23
1018.88 1019.17 1019.53 1019.86 1020.07 1020.62 1021.12 1021.12 1021.25 1021.40 1021.46 1021.60 1021.78 1021.97 1022.39 1022.36 1022.72 1022.63 1022.76 1022.58 1022.49 1022.42 1022.88 1022.05 1021.69 1021.56 1021.38 1021.46 1021.65 1021.66 1021.45 1021.39 1021.26 1021.12 1021.10 1021.03 1020.90 1020.82 1020.96 1021.05 1020.86 1020.63 1020.45
1018.66 1019.13 1019.70 1019.96 1020.28 1020.83 1021.16 1021.69 1022.40 1022.47 1022.30 1022.36 1022.28 1022.43 1022.75 1023.14 1023.38 1023.30 1023.23 1023.24 1022.98 1023.06 1022.41 1021.53 1021.39 1021.30 1021.19 1021.33 1021.27 1021.43 1021.61 1021.69 1021.61 1021.59 1021.50 1021.47 1021.28 1021.17 1021.05 1021.23 1021.13 1020.87 1020.74
1018.50 1018.88 1019.19 1019.14 1019.61 1020.13 1020.62 1021.13 1021.98 1023.04 1022.99 1023.09 1023.17 1023.26 1023.03 1023.53 1023.64 1023.55 1023.68 1023.73 1023.60 1023.59 1021.92 1021.38 1021.36 1021.48 1021.64 1021.67 1021.63 1021.51 1021.58 1021.90 1022.22 1021.91 1021.95 1021.95 1021.70 1021.65 1021.42 1021.32 1021.23 1021.10 1020.93
1018.72 1018.81 1018.28 1018.39 1018.70 1018.95 1019.25 1019.54 1020.00 1020.66 1021.49 1022.68 1023.57 1023.58 1023.77 1023.77 1023.78 1023.76 1023.80 1023.91 1023.01 1022.58 1021.51 1021.41 1021.58 1021.72 1021.88 1021.94 1021.96 1021.92 1022.17 1022.31 1022.22 1022.19 1022.15 1022.05 1021.93 1021.80 1021.59 1021.51 1021.39 1021.36 1021.19
1018.33 1018.31 1018.42 1018.54 1018.80 1019.12 1019.12 1019.36 1019.75 1020.25 1020.67 1021.33 1022.49 1023.44 1023.80 1023.98 1024.06 1023.97 1023.77 1022.78 1021.42 1021.28 1021.23 1021.44 1021.90 1021.95 1022.01 1022.14 1022.40 1022.48 1022.44 1022.38 1022.34 1022.22 1022.19 1022.10 1022.11 1021.88 1021.76 1021.66 1021.65 1022.19 1022.14
1018.94 1019.23 1018.86 1018.96 1019.08 1019.07 1019.14 1019.33 1019.67 1020.03 1020.31 1020.60 1020.84 1021.16 1022.34 1023.30 1023.14 1022.78 1022.35 1021.57 1021.20 1021.02 1021.10 1021.26 1021.63 1021.86 1021.97 1022.21 1022.50 1022.49 1022.58 1022.63 1022.49 1022.23 1022.02 1022.13 1022.21 1022.11 1021.75 1021.78 1021.60 1021.43 1021.36
1018.87 1019.30 1019.40 1018.70 1018.76 1018.98 1019.15 1019.27 1019.43 1019.57 1019.77 1020.00 1020.40 1021.06 1021.87 1021.16 1020.65 1020.76 1020.85 1020.93 1020.89 1020.75 1021.04 1021.23 1021.07 1021.36 1021.82 1022.11 1022.06 1022.07 1021.93 1021.77 1021.87 1021.84 1021.89 1022.00 1022.11 1021.92 1022.03 1021.85 1021.65 1021.42 1021.18
1018.48 1018.68 1018.57 1018.44 1018.85 1019.11 1019.17 1019.15 1019.31 1019.39 1019.48 1019.64 1019.95 1020.95 1021.64 1021.37 1020.41 1020.33 1020.36 1020.41 1020.58 1020.89 1021.01 1021.18 1021.07 1020.72 1020.85 1021.10 1021.44 1021.72 1021.51 1021.45 1021.51 1021.67 1021.72 1021.74 1021.82 1021.84 1021.82 1021.65 1021.35 1021.11 1020.93
1018.29 1018.33 1018.38 1018.48 1018.65 1019.20 1019.22 1018.81 1018.77 1019.00 1019.06 1019.13 1019.21 1019.47 1020.28 1020.32 1020.01 1019.92 1019.95 1020.05 1020.15 1020.31 1020.62 1020.97 1020.99 1020.75 1020.56 1020.74 1021.11 1021.27 1021.19 1020.95 1021.01 1021.21 1021.39 1021.44 1021.52 1021.60 1021.55 1021.42 1021.08 1020.83 1020.81
1018.09 1018.16 1018.00 1017.89 1017.83 1018.05 1018.07 1018.05 1018.13 1018.65 1018.91 1018.46 1018.42 1018.71 1018.89 1019.16 1019.41 1019.55 1019.53 1019.42 1019.67 1019.94 1020.23 1020.40 1020.50 1020.41 1020.25 1020.61 1020.72 1020.91 1020.93 1021.06 1021.18 1021.18 1021.47 1021.33 1021.23 1021.39 1021.64 1021.21 1020.85 1020.69 1020.62
1018.21 1018.16 1017.86 1017.73 1017.72 1017.70 1017.67 1017.57 1017.43 1017.55 1017.56 1017.75 1017.91 1018.16 1018.32 1018.70 1018.83 1018.75 1018.83 1018.90 1019.08 1019.32 1019.45 1019.57 1019.81 1019.84 1020.08 1020.23 1020.36 1020.28 1021.22 1021.54 1021.85 1022.10 1021.23 1021.38 1021.19 1021.24 1021.18 1020.86 1020.59 1020.46 1020.55
1017.97 1018.08 1018.03 1018.33 1018.56 1018.14 1018.35 1017.99 1017.57 1017.50 1017.47 1017.42 1017.69 1017.93 1017.99 1017.96 1017.94 1018.14 1018.29 1018.22 1018.30 1018.30 1018.49 1018.56 1018.73 1018.95 1019.13 1019.42 1019.69 1019.92 1020.83 1021.30 1021.64 1022.07 1021.61 1021.07 1020.90 1020.88 1020.76 1020.64 1020.45 1020.29 1020.27
Wind_Speed
5 5 4 4 4 4 4 5 6 6 7 8 8 8 7 7 6 2 4 3 1 2 3 4 5 5 7 6 5 5 5 5 7 4 0 1 3 5 7 7 8 8 8
5 4 4 3 2 4 4 6 6 6 7 8 9 9 9 10 10 9 7 6 4 3 1 1 2 3 6 6 5 6 5 3 2 2 1 1 5 6 6 7 5 6 7
6 5 4 3 2 3 5 6 6 6 7 8 9 9 10 10 10 10 10 10 9 8 9 8 7 7 5 5 6 6 3 1 2 2 2 2 3 3 5 5 6 7 7
7 7 5 3 1 3 4 4 5 5 6 7 8 10 10 10 10 9 9 10 10 9 10 10 9 8 7 7 5 5 4 4 4 4 3 2 2 2 2 2 3 5 5
7 5 5 3 2 3 3 4 4 4 5 5 7 8 9 10 9 9 10 10 10 10 10 10 10 13 18 14 4 5 4 3 3 3 2 3 3 2 2 2 3 4 6
6 6 5 5 5 4 4 4 4 5 5 6 7 7 9 8 9 9 8 8 8 8 8 8 8 12 15 17 17 17 10 4 4 3 3 3 3 3 2 2 3 2 2
3 5 6 6 7 6 6 5 5 5 5 5 5 7 9 9 9 10 8 8 8 8 8 7 8 8 9 11 11 15 16 17 12 7 7 5 4 3 2 4 3 3 3
3 6 6 7 7 9 7 6 5 5 5 5 5 6 8 7 6 5 3 9 9 10 10 10 10 10 9 9 12 14 15 14 12 9 10 8 6 4 6 5 7 7 4
4 5 8 8 5 9 9 7 6 7 6 5 5 6 7 7 5 6 1 8 9 9 10 11 9 9 8 11 9 11 12 12 11 13 12 12 13 12 11 2 3 1 4
6 7 7 7 5 7 9 8 7 6 7 5 6 6 6 7 6 8 6 6 8 8 9 10 15 9 9 12 6 7 9 8 7 8 8 8 8 9 10 8 5 5 2
6 6 7 7 6 5 6 7 7 6 7 7 8 6 7 7 6 9 13 3 5 6 7 7 7 10 11 12 10 7 7 6 4 5 5 5 5 7 7 7 8 7 3
6 7 7 6 5 5 7 4 6 6 7 7 7 6 6 7 10 10 12 12 10 8 7 6 7 9 10 9 8 3 2 8 3 4 4 5 5 6 7 7 7 8 8
6 6 6 7 7 6 7 6 7 6 6 5 5 4 3 4 5 9 9 10 8 7 7 8 8 8 11 9 5 4 11 2 3 4 5 5 5 5 3 6 6 6 7
6 6 6 7 7 7 5 4 4 3 5 4 5 4 4 4 4 5 6 6 10 9 9 5 8 8 9 5 6 1 5 5 4 4 4 4 3 3 4 3 3 2 2
6 7 7 6 8 8 8 6 4 6 3 3 4 5 4 4 4 3 1 4 4 4 7 7 5 3 4 4 4 3 3 3 3 3 3 3 3 3 3 3 2 2 3
8 6 6 6 6 6 7 8 14 9 11 9 9 4 5 8 6 7 8 6 5 4 6 3 2 2 2 2 3 4 4 2 3 3 3 3 3 3 2 2 2 2 3
9 9 8 7 7 7 7 7 8 6 11 11 10 10 8 7 6 7 7 5 3 7 6 2 2 1 1 1 0 1 3 4 0 3 2 2 2 3 4 2 1 1 2
9 4 7 6 6 5 5 5 5 6 7 8 6 5 7 5 6 6 7 8 7 8 2 2 2 1 0 0 0 2 3 4 3 1 1 1 2 2 1 0 0 2 1
8 8 8 7 7 6 5 5 5 4 5 6 8 6 6 5 5 4 6 10 1 2 2 3 1 2 2 1 1 2 2 2 2 3 2 1 1 3 1 2 3 2 3
9 6 8 8 6 6 5 5 5 5 4 4 5 7 8 8 8 9 7 4 3 3 2 3 3 3 2 2 3 3 5 5 6 6 3 1 1 3 3 3 3 3 4
8 6 5 5 5 5 4 4 4 3 3 3 4 5 9 6 4 5 4 4 4 3 3 4 5 5 5 4 5 5 5 6 5 5 4 4 2 5 3 4 5 4 4
6 6 4 3 4 3 1 1 1 1 1 2 4 7 6 6 5 4 4 3 3 4 4 4 6 6 6 6 5 6 7 6 5 5 5 5 4 5 5 5 5 5 4
4 4 4 3 2 1 5 5 4 4 4 4 4 5 8 8 7 6 5 6 5 5 4 4 5 6 6 5 5 6 8 7 5 5 6 6 6 6 5 6 6 6 6
3 3 4 4 3 5 5 5 5 5 7 6 5 5 6 6 7 8 8 6 6 6 5 6 6 8 6 5 6 6 7 7 5 6 7 7 7 5 7 8 7 7 6
2 5 6 4 6 6 6 7 6 7 6 7 6 5 6 8 9 9 8 8 8 8 9 8 7 8 10 12 11 10 9 6 6 8 5 8 8 8 8 8 8 7 8
4 1 4 4 6 8 7 8 6 5 5 5 5 6 7 8 9 9 9 10 9 9 11 9 11 13 12 11 14 9 12 9 8 7 8 8 8 8 8 10 11 8 9
Wind_Direction
136 135 145 95 73 39 12 14 355 357 10 26 25 15 11 14 20 62 76 33 38 127 228 222 240 251 255 252 237 236 221 235 252 240 143 120 73 71 55 48 36 44 44
153 168 152 117 55 40 21 30 18 19 25 35 43 43 39 37 34 44 61 56 57 46 353 269 281 310 269 278 297 282 257 201 235 253 163 95 66 43 60 57 53 41 48
170 189 165 142 80 42 45 35 35 33 40 46 55 51 54 60 60 58 58 61 48 49 49 47 45 34 26 54 41 21 339 78 204 220 174 62 90 79 64 45 46 54 50
202 186 153 168 105 69 72 64 46 44 50 56 58 65 66 63 64 71 76 74 71 62 59 56 49 48 49 61 53 40 49 66 69 75 69 104 96 101 90 93 67 47 59
194 188 170 190 189 130 100 97 77 47 47 53 66 67 65 57 45 66 75 77 76 72 60 55 56 65 62 56 55 31 57 77 67 71 75 67 45 51 49 95 93 83 55
196 205 204 211 212 170 165 139 122 85 50 49 59 69 68 63 16 34 73 80 75 75 74 75 80 75 70 70 71 67 59 67 72 53 44 76 60 27 11 108 128 172 107
258 245 241 236 223 164 184 166 149 115 93 85 80 83 83 76 35 41 41 76 75 78 79 78 80 80 81 93 99 89 74 67 65 77 83 51 66 3 356 94 68 70 85
335 306 295 275 227 154 191 180 154 134 117 112 105 102 96 77 34 42 62 87 86 80 79 77 80 75 47 81 84 79 69 56 53 68 74 77 71 64 77 103 110 110 112
350 332 321 328 204 169 181 164 167 141 140 141 127 120 107 95 25 342 9 109 94 83 71 49 81 80 16 350 94 94 89 91 85 84 90 84 58 33 4 143 108 205 100
1 340 332 303 199 180 167 165 158 158 152 140 113 89 53 103 27 353 348 123 120 110 102 85 48 52 18 359 101 103 96 83 80 102 105 98 76 84 38 24 13 13 83
10 3 10 11 50 98 132 157 154 155 137 135 110 54 49 23 65 5 355 110 130 98 67 66 54 44 44 35 20 91 94 108 123 126 105 90 83 73 59 43 18 6 17
35 36 33 42 48 58 81 93 117 117 142 135 123 93 60 49 34 47 47 49 59 101 97 93 84 72 65 54 87 48 248 264 100 88 76 59 50 57 70 54 51 46 53
62 57 62 67 64 67 82 88 83 71 81 90 98 92 74 70 77 68 77 90 59 102 102 100 130 137 132 104 69 288 264 97 81 79 70 66 65 54 134 136 116 114 88
89 81 68 72 72 67 67 67 84 117 120 122 124 122 134 117 101 98 100 97 95 103 150 143 89 79 54 108 171 174 49 41 45 65 67 68 78 67 65 27 51 58 91
103 98 90 83 79 71 53 35 43 38 60 111 127 119 123 135 133 94 104 133 116 117 166 176 168 143 127 116 106 98 114 118 84 76 62 52 53 73 63 50 17 52 46
108 95 94 98 87 85 87 75 49 58 58 62 65 89 74 80 94 83 81 84 116 258 240 175 148 127 103 107 126 133 133 128 80 62 53 30 36 30 67 80 24 30 49
122 134 131 128 117 123 127 125 107 67 76 65 71 67 82 126 120 110 114 129 219 275 238 146 145 139 97 82 139 145 132 83 99 64 47 34 31 93 255 61 65 12 72
98 56 111 104 104 104 98 107 124 136 131 125 78 84 83 116 134 154 191 219 185 216 165 148 155 148 218 334 207 149 142 182 149 168 110 55 39 351 347 39 182 349 346
127 107 104 97 84 88 100 98 97 109 118 124 134 174 135 133 163 213 251 254 184 153 165 154 202 206 197 212 277 275 263 224 250 212 193 344 357 297 290 278 111 333 298
97 38 107 122 132 112 108 100 100 107 140 152 182 148 150 177 189 201 216 222 233 252 211 232 193 240 211 241 230 233 221 208 209 225 215 235 282 296 295 252 265 281 217
127 137 14 132 114 103 96 88 83 88 112 145 160 95 34 268 201 190 207 209 241 249 245 257 236 198 228 214 247 238 248 248 221 236 227 224 251 288 261 260 261 245 240
147 157 142 107 114 165 126 156 213 200 170 181 168 141 161 250 256 229 230 244 238 239 264 252 254 242 226 231 223 244 252 242 236 235 240 248 238 249 262 257 248 245 231
160 172 170 200 243 110 239 256 245 235 240 225 223 193 187 227 237 237 239 234 234 239 244 248 264 267 242 232 239 244 259 260 251 244 241 244 238 246 251 254 243 241 234
192 264 283 278 261 306 282 264 251 223 276 246 222 234 233 224 234 235 246 238 225 229 226 233 244 265 247 233 236 244 243 249 266 260 245 256 251 207 246 259 248 249 256
324 241 253 286 310 314 314 304 286 277 248 219 248 252 239 235 243 242 238 231 228 227 228 224 231 235 233 241 254 263 104 109 269 345 252 246 255 265 263 255 246 243 236
237 2 340 359 317 335 352 306 318 308 297 287 273 284 283 279 263 251 256 245 238 236 239 235 229 230 233 231 235 231 146 159 205 230 265 253 244 241 243 241 248 244 241